GW5909 Weather Reports


time (UTC)temp
C
wind
direction
speed
KPH
gust
KPH
rain 1hr
cm
rain 24hr
cm
rain mn
cm
humidity
%
barometer
mb
20260509032405 15 195 0.0 1.6 0.00 0.00 0.00 51 1008.5
20260509031405 15 195 0.0 1.6 0.00 0.00 0.00 51 1008.4
20260509030904 15 195 0.0 1.6 0.00 0.00 0.00 50 1008.5
20260509030405 15 195 0.0 0.0 0.00 0.00 0.00 50 1008.6
20260509025905 15 195 0.0 0.0 0.00 0.00 0.00 50 1008.7
20260509024905 16 195 0.0 0.0 0.00 0.00 0.00 50 1008.6
20260509024404 16 195 0.0 0.0 0.00 0.00 0.00 50 1008.8
20260509023904 16 195 0.0 3.2 0.00 0.00 0.00 50 1008.7
20260509023404 16 198 0.0 3.2 0.00 0.00 0.00 50 1008.2
20260509022404 16 192 0.0 3.2 0.00 0.00 0.00 50 1008.7
20260509021904 16 191 0.0 1.6 0.00 0.00 0.00 50 1008.8
20260509021404 16 193 0.0 3.2 0.00 0.00 0.00 50 1008.6
20260509020904 15 202 0.0 4.8 0.00 0.00 0.00 50 1008.7
20260509020404 15 195 0.0 4.8 0.00 0.00 0.00 50 1008.5
20260509015904 15 191 0.0 1.6 0.00 0.00 0.00 49 1008.4
20260509015404 15 191 0.0 1.6 0.00 0.00 0.00 49 1008.5
20260509014905 15 195 0.0 0.0 0.00 0.00 0.00 48 1008.8
20260509014405 15 195 0.0 0.0 0.00 0.00 0.00 48 1008.6
20260509013404 16 195 0.0 0.0 0.00 0.00 0.00 47 1008.5
20260509012905 16 195 0.0 0.0 0.00 0.00 0.00 46 1008.4
20260509011904 16 195 0.0 0.0 0.00 0.00 0.00 45 1008.6
20260509011405 16 195 0.0 0.0 0.00 0.00 0.00 45 1008.2
20260509010904 17 195 0.0 0.0 0.00 0.00 0.00 44 1008.3
20260509010404 17 195 0.0 0.0 0.00 0.00 0.00 44 1008.4
20260509005906 17 195 0.0 1.6 0.00 0.00 0.00 43 1008.1
20260509005404 17 193 0.0 0.0 0.00 0.00 0.00 43 1008.1
20260509004906 18 193 0.0 4.8 0.00 0.00 0.00 43 1008.1
20260509004405 18 203 0.0 1.6 0.00 0.00 0.00 43 1008.2
20260509003904 18 206 0.0 0.0 0.00 0.00 0.00 42 1007.7
20260509003404 19 207 0.0 0.0 0.00 0.00 0.00 42 1007.7
20260509002905 19 207 0.0 0.0 0.00 0.00 0.00 42 1007.7
20260509002404 19 207 0.0 8.0 0.00 0.00 0.00 41 1008.0
20260509001905 20 260 0.0 3.2 0.00 0.00 0.00 41 1007.7
20260509001404 20 205 1.6 9.7 0.00 0.00 0.00 41 1007.9
20260509000904 20 190 0.0 1.6 0.00 0.00 0.00 41 1008.0
20260508235904 21 195 0.0 1.6 0.00 0.00 0.00 40 1007.8
20260508235405 21 197 0.0 0.0 0.00 0.00 0.00 40 1008.1
20260508234904 21 201 0.0 3.2 0.00 0.00 0.00 41 1007.9
20260508234405 21 209 0.0 3.2 0.00 0.00 0.00 41 1007.9
20260508233906 21 209 0.0 9.7 0.00 0.00 0.00 40 1007.9
20260508233404 21 226 0.0 3.2 0.00 0.00 0.00 40 1008.0
20260508232904 21 206 0.0 9.7 0.00 0.00 0.00 40 1008.2
20260508232404 21 206 0.0 4.8 0.00 0.00 0.00 39 1008.0
20260508231404 22 278 1.6 11.3 0.00 0.00 0.00 39 1008.2
20260508230904 22 207 0.0 8.0 0.00 0.00 0.00 39 1008.1
20260508230404 22 188 3.2 11.3 0.00 0.00 0.00 38 1007.9
20260508225904 22 196 3.2 19.3 0.00 0.00 0.00 38 1008.0
20260508224904 23 185 8.0 20.9 0.00 0.00 0.00 38 1008.0
20260508224405 23 196 9.7 24.1 0.00 0.00 0.00 38 1007.9
20260508223904 23 187 9.7 24.1 0.00 0.00 0.00 38 1007.7
20260508222404 23 196 4.8 14.5 0.00 0.00 0.00 38 1007.9
20260508221904 23 228 3.2 20.9 0.00 0.00 0.00 37 1008.0
20260508221404 23 190 9.7 19.3 0.00 0.00 0.00 37 1007.7
20260508220904 23 187 4.8 25.7 0.00 0.00 0.00 37 1007.9
20260508220404 23 180 3.2 14.5 0.00 0.00 0.00 37 1007.7
20260508215404 23 212 6.4 16.1 0.00 0.00 0.00 37 1007.6
20260508214404 23 221 4.8 12.9 0.00 0.00 0.00 38 1007.8
20260508213904 23 231 1.6 4.8 0.00 0.00 0.00 37 1007.8
20260508212904 23 239 1.6 11.3 0.00 0.00 0.00 38 1008.0
20260508212404 23 43 0.0 9.7 0.00 0.00 0.00 38 1007.9
20260508211904 23 109 1.6 14.5 0.00 0.00 0.00 38 1007.8
20260508211404 23 268 1.6 22.5 0.00 0.00 0.00 37 1007.6
20260508210904 23 190 3.2 12.9 0.00 0.00 0.00 37 1007.9
20260508210404 24 306 1.6 9.7 0.00 0.00 0.00 37 1007.8
20260508204903 24 301 1.6 14.5 0.00 0.00 0.00 38 1008.1
20260508204404 24 199 1.6 16.1 0.00 0.00 0.00 38 1008.1
20260508203404 24 215 3.2 12.9 0.00 0.00 0.00 38 1008.4
20260508202904 24 214 1.6 9.7 0.00 0.00 0.00 38 1008.6
20260508202404 25 235 3.2 4.8 0.00 0.00 0.00 38 1008.7
20260508201904 25 223 1.6 16.1 0.00 0.00 0.00 38 1008.8
20260508201403 25 187 1.6 12.9 0.00 0.00 0.00 39 1008.8
20260508200404 25 295 1.6 27.4 0.00 0.00 0.00 39 1009.2
20260508195404 24 284 1.6 11.3 0.00 0.00 0.00 39 1009.4
20260508194904 24 205 4.8 22.5 0.00 0.00 0.00 39 1009.2
20260508194404 24 218 3.2 32.2 0.00 0.00 0.00 39 1009.4
20260508193904 23 179 4.8 32.2 0.00 0.00 0.00 39 1009.2
20260508193404 24 305 3.2 20.9 0.00 0.00 0.00 39 1009.1
20260508192903 23 180 6.4 20.9 0.00 0.00 0.00 39 1009.2
20260508192403 24 218 4.8 12.9 0.00 0.00 0.00 39 1009.0
20260508191904 23 191 3.2 14.5 0.00 0.00 0.00 40 1009.0
20260508191404 23 197 4.8 29.0 0.00 0.00 0.00 40 1009.4
20260508190904 23 201 4.8 27.4 0.00 0.00 0.00 40 1009.6
20260508185904 23 191 8.0 22.5 0.00 0.00 0.00 40 1009.4
20260508185403 23 151 8.0 14.5 0.00 0.00 0.00 40 1009.5
20260508184904 23 218 6.4 27.4 0.00 0.00 0.00 41 1009.6
20260508184403 23 194 3.2 25.7 0.00 0.00 0.00 40 1009.4
20260508183904 23 190 9.7 24.1 0.00 0.00 0.00 41 1009.8
20260508183403 23 202 4.8 22.5 0.00 0.00 0.00 41 1010.0
20260508181404 23 182 6.4 22.5 0.00 0.00 0.00 42 1010.1
20260508180904 23 186 3.2 12.9 0.00 0.00 0.00 42 1010.5
20260508180403 23 346 1.6 14.5 0.00 0.00 0.00 43 1010.5
20260508175904 23 290 3.2 14.5 0.00 0.00 0.00 43 1010.5
20260508175404 23 209 3.2 22.5 0.00 0.00 0.00 43 1010.7
20260508174404 23 187 4.8 20.9 0.00 0.00 0.00 43 1010.9
20260508173904 23 204 9.7 20.9 0.00 0.00 0.00 44 1011.0
20260508173404 23 166 6.4 25.7 0.00 0.00 0.00 44 1011.1
20260508172904 23 315 1.6 8.0 0.00 0.00 0.00 43 1011.3
20260508171904 23 211 3.2 16.1 0.00 0.00 0.00 44 1011.6
20260508171403 23 194 3.2 16.1 0.00 0.00 0.00 44 1011.7
20260508170903 23 326 1.6 4.8 0.00 0.00 0.00 44 1011.8
20260508170404 23 190 1.6 16.1 0.00 0.00 0.00 45 1011.9
20260508165903 23 240 6.4 16.1 0.00 0.00 0.00 45 1011.9
20260508165404 23 183 3.2 9.7 0.00 0.00 0.00 46 1011.9
20260508164406 23 301 1.6 11.3 0.00 0.00 0.00 46 1012.2
20260508163906 22 195 1.6 11.3 0.00 0.00 0.00 46 1012.3
20260508163406 22 264 1.6 14.5 0.00 0.00 0.00 46 1012.3
20260508162906 22 205 0.0 8.0 0.00 0.00 0.00 46 1012.6
20260508162405 22 328 0.0 11.3 0.00 0.00 0.00 46 1012.6
20260508161906 22 273 1.6 4.8 0.00 0.00 0.00 46 1012.9
20260508161406 22 279 0.0 8.0 0.00 0.00 0.00 47 1012.9
20260508160906 22 211 1.6 4.8 0.00 0.00 0.00 46 1013.1
20260508160406 22 293 3.2 9.7 0.00 0.00 0.00 46 1012.8
20260508155905 22 196 3.2 11.3 0.00 0.00 0.00 46 1012.9
20260508154905 23 322 0.0 4.8 0.00 0.00 0.00 45 1013.1
20260508153906 25 285 1.6 9.7 0.00 0.00 0.00 46 1012.8
20260508153405 25 201 3.2 12.9 0.00 0.00 0.00 46 1013.1
20260508152906 25 170 1.6 14.5 0.00 0.00 0.00 48 1013.0
20260508152406 25 186 3.2 9.7 0.00 0.00 0.00 50 1012.9
20260508151905 24 261 0.0 4.8 0.00 0.00 0.00 50 1013.4
20260508151406 23 314 0.0 3.2 0.00 0.00 0.00 51 1013.3
20260508150905 23 202 1.6 9.7 0.00 0.00 0.00 52 1013.4
20260508145906 22 192 0.0 8.0 0.00 0.00 0.00 55 1013.7
20260508145406 22 289 0.0 8.0 0.00 0.00 0.00 57 1013.6
20260508144406 21 276 3.2 9.7 0.00 0.00 0.00 60 1014.1
20260508143905 21 274 0.0 8.0 0.00 0.00 0.00 61 1013.8
20260508143406 20 285 1.6 8.0 0.00 0.00 0.00 64 1014.1
20260508142905 20 276 0.0 8.0 0.00 0.00 0.00 65 1014.0
20260508142405 19 288 0.0 4.8 0.00 0.00 0.00 66 1014.1
20260508141906 19 268 0.0 8.0 0.00 0.00 0.00 68 1014.0
20260508141405 18 234 0.0 8.0 0.00 0.00 0.00 69 1014.0
20260508140906 18 223 0.0 3.2 0.00 0.00 0.00 70 1014.1
20260508140406 17 275 0.0 3.2 0.00 0.00 0.00 72 1014.3
20260508135905 17 243 0.0 1.6 0.00 0.00 0.00 73 1014.5
20260508135405 17 261 0.0 3.2 0.00 0.00 0.00 74 1014.4
20260508134906 16 279 0.0 3.2 0.00 0.00 0.00 75 1014.5
20260508134406 16 285 1.6 3.2 0.00 0.00 0.00 76 1014.5
20260508133905 15 265 0.0 1.6 0.00 0.00 0.00 76 1014.8
20260508133405 15 193 0.0 4.8 0.00 0.00 0.00 77 1014.9
20260508132906 15 249 0.0 1.6 0.00 0.00 0.00 77 1014.7
20260508132406 14 186 0.0 8.0 0.00 0.00 0.00 78 1014.9
20260508131905 13 211 0.0 1.6 0.00 0.00 0.00 78 1015.1
20260508130406 12 191 0.0 1.6 0.00 0.00 0.00 80 1015.2
20260508125905 11 207 0.0 0.0 0.00 0.00 0.00 80 1015.1
20260508124905 10 182 0.0 1.6 0.00 0.00 0.00 81 1015.4
20260508124405 10 182 0.0 3.2 0.00 0.00 0.00 81 1015.3
20260508123905 10 187 1.6 11.3 0.00 0.00 0.00 81 1015.6
20260508121906 8 187 3.2 9.7 0.00 0.00 0.00 82 1015.7
20260508121405 7 209 1.6 4.8 0.00 0.00 0.00 82 1015.6
20260508120905 7 208 1.6 4.8 0.00 0.00 0.00 82 1015.3
20260508115905 6 244 0.0 3.2 0.00 0.00 0.00 82 1015.7
20260508115406 5 245 0.0 1.6 0.00 0.00 0.00 82 1016.0
20260508114906 5 245 0.0 1.6 0.00 0.00 0.00 82 1016.0
20260508114406 5 245 0.0 3.2 0.00 0.00 0.00 82 1015.7
20260508113406 3 268 0.0 3.2 0.00 0.00 0.00 81 1015.9
20260508112905 3 279 0.0 3.2 0.00 0.00 0.00 81 1015.9
20260508112405 3 282 0.0 3.2 0.00 0.00 0.00 80 1015.9
20260508111405 3 296 0.0 0.0 0.00 0.00 0.00 80 1015.7
20260508110905 3 296 0.0 0.0 0.00 0.00 0.00 80 1015.7
20260508105905 3 296 0.0 0.0 0.00 0.00 0.00 80 1015.6
20260508105405 3 296 0.0 0.0 0.00 0.00 0.00 79 1015.7
20260508104905 3 296 0.0 0.0 0.00 0.00 0.00 79 1015.6
20260508104405 3 296 0.0 0.0 0.00 0.00 0.00 79 1015.6
20260508103405 3 296 0.0 0.0 0.00 0.00 0.00 79 1015.5
20260508102905 3 296 0.0 0.0 0.00 0.00 0.00 79 1015.5
20260508102405 3 296 0.0 0.0 0.00 0.00 0.00 79 1015.6
20260508101405 3 296 0.0 0.0 0.00 0.00 0.00 79 1015.5
20260508100905 3 296 0.0 0.0 0.00 0.00 0.00 79 1015.7
20260508100405 3 296 0.0 0.0 0.00 0.00 0.00 79 1015.5
20260508095905 3 296 0.0 0.0 0.00 0.00 0.00 79 1015.7
20260508095405 3 296 0.0 0.0 0.00 0.00 0.00 79 1015.3
20260508094906 3 296 0.0 0.0 0.00 0.00 0.00 78 1015.3
20260508094405 3 296 0.0 0.0 0.00 0.00 0.00 78 1015.6
20260508093905 3 296 0.0 0.0 0.00 0.00 0.00 78 1015.4
20260508093405 3 296 0.0 0.0 0.00 0.00 0.00 78 1015.4
20260508092905 3 296 0.0 0.0 0.00 0.00 0.00 78 1015.4
20260508092405 3 296 0.0 0.0 0.00 0.00 0.00 78 1015.4
20260508091905 3 296 0.0 0.0 0.00 0.00 0.00 78 1015.6
20260508091405 3 296 0.0 0.0 0.00 0.00 0.00 78 1015.6
20260508090905 3 296 0.0 0.0 0.00 0.00 0.00 78 1015.3
20260508090405 3 296 0.0 0.0 0.00 0.00 0.00 77 1015.3
20260508085905 3 296 0.0 0.0 0.00 0.00 0.00 77 1015.4
20260508085405 3 296 0.0 0.0 0.00 0.00 0.00 77 1015.3
20260508084405 3 296 0.0 0.0 0.00 0.00 0.00 77 1015.3
20260508083905 3 296 0.0 0.0 0.00 0.00 0.00 77 1015.3
20260508083405 3 296 0.0 1.6 0.00 0.00 0.00 77 1015.0
20260508082405 3 305 0.0 0.0 0.00 0.00 0.00 76 1015.1
20260508081905 3 305 0.0 0.0 0.00 0.00 0.00 76 1015.4
20260508080905 3 305 0.0 0.0 0.00 0.00 0.00 76 1015.5
20260508075905 3 305 0.0 1.6 0.00 0.00 0.00 76 1015.2
20260508074904 3 307 0.0 0.0 0.00 0.00 0.00 75 1015.3
20260508074405 3 307 0.0 0.0 0.00 0.00 0.00 75 1015.4
20260508073405 3 307 0.0 0.0 0.00 0.00 0.00 75 1015.2
20260508072905 4 307 0.0 0.0 0.00 0.00 0.00 75 1015.4
20260508072405 4 307 0.0 0.0 0.00 0.00 0.00 74 1015.4
20260508071905 4 307 0.0 0.0 0.00 0.00 0.00 74 1015.2
20260508071405 4 307 0.0 0.0 0.00 0.00 0.00 74 1015.4
20260508070905 4 307 0.0 0.0 0.00 0.00 0.00 74 1015.3
20260508070405 4 307 0.0 0.0 0.00 0.00 0.00 74 1015.1
20260508065905 4 307 0.0 0.0 0.00 0.00 0.00 74 1015.4
20260508064905 4 307 0.0 0.0 0.00 0.00 0.00 73 1015.2
20260508064405 4 307 0.0 0.0 0.00 0.00 0.00 73 1015.3
20260508063905 4 307 0.0 0.0 0.00 0.00 0.00 73 1015.6
20260508063405 4 307 0.0 0.0 0.00 0.00 0.00 73 1015.2
20260508062905 4 307 0.0 0.0 0.00 0.00 0.00 72 1015.4
20260508062405 4 307 0.0 0.0 0.00 0.00 0.00 72 1015.4
20260508061905 5 307 0.0 0.0 0.00 0.00 0.00 72 1015.5
20260508061404 5 307 0.0 0.0 0.00 0.00 0.00 72 1015.4
20260508060905 5 307 0.0 0.0 0.00 0.00 0.00 72 1015.8
20260508060405 5 307 0.0 0.0 0.00 0.00 0.00 71 1015.4
20260508055905 5 307 0.0 0.0 0.00 0.00 0.00 71 1016.0
20260508055405 5 307 0.0 0.0 0.00 0.00 0.00 71 1015.8
20260508054405 5 307 0.0 0.0 0.00 0.00 0.00 70 1015.7
20260508053905 5 307 0.0 0.0 0.00 0.00 0.00 70 1015.9
20260508053405 5 307 0.0 0.0 0.00 0.00 0.00 70 1015.8
20260508052905 5 307 0.0 0.0 0.00 0.00 0.00 69 1015.8
20260508052404 5 307 0.0 0.0 0.00 0.00 0.00 69 1015.9
20260508051905 5 307 0.0 0.0 0.00 0.00 0.00 69 1015.8
20260508051404 5 307 0.0 0.0 0.00 0.00 0.00 68 1015.8
20260508050905 5 307 0.0 0.0 0.00 0.00 0.00 68 1015.8
20260508050404 5 307 0.0 0.0 0.00 0.00 0.00 68 1015.7
20260508045905 5 307 0.0 0.0 0.00 0.00 0.00 67 1015.7
20260508045404 5 307 0.0 0.0 0.00 0.00 0.00 67 1015.6
20260508044405 5 307 0.0 0.0 0.00 0.00 0.00 66 1015.6
20260508043904 6 307 0.0 0.0 0.00 0.00 0.00 66 1015.6
20260508043405 6 307 0.0 0.0 0.00 0.00 0.00 66 1015.6
20260508042904 6 307 0.0 0.0 0.00 0.00 0.00 66 1015.6
20260508042405 6 307 0.0 0.0 0.00 0.00 0.00 65 1015.3
20260508041904 6 307 0.0 0.0 0.00 0.00 0.00 65 1015.4
20260508040905 6 307 0.0 0.0 0.00 0.00 0.00 64 1015.1
20260508040404 6 307 0.0 0.0 0.00 0.00 0.00 64 1015.2
20260508035904 6 307 0.0 0.0 0.00 1.09 0.00 64 1015.4
20260508035405 6 307 0.0 0.0 0.00 1.09 0.00 63 1015.4
20260508034904 6 307 0.0 0.0 0.00 1.09 0.00 63 1015.2
20260508034405 6 307 0.0 0.0 0.00 1.09 0.00 62 1015.4
20260508033904 6 307 0.0 0.0 0.00 1.09 0.00 62 1015.3
20260508033405 6 307 0.0 0.0 0.00 1.09 0.00 61 1015.3
20260508032904 7 307 0.0 0.0 0.00 1.09 0.00 61 1015.3